Location: LC-39B
(28.6273°N, 80.6211°W)
Time: 07:56:37
(UTC+00:00)

ISS - Visible Passes

Search period start: 19 April 2015 00:00
Search period end: 29 April 2015 00:00
Orbit: 396 x 403 km, 51.6° (Epoch: 18 April)

Date Brightness Start Highest point End Pass type
(mag) Time Alt. Az. Time Alt. Az. Time Alt. Az.
20 Apr -0.2 02:05:50 10° NNW 02:06:14 12° NNW 02:06:14 12° NNW visible
21 Apr -1.1 01:12:41 10° N 01:14:31 15° NE 01:14:31 15° NE visible
22 Apr -1.1 01:53:52 10° NW 01:55:23 25° NW 01:55:23 25° NW visible
23 Apr -2.4 01:00:02 10° NNW 01:03:01 33° NE 01:03:43 30° ENE visible
24 Apr -1.6 01:42:15 10° WNW 01:44:38 28° WSW 01:44:38 28° WSW visible
25 Apr -3.4 00:47:48 10° NW 00:51:03 82° SW 00:53:02 21° SE visible
26 Apr -0.5 01:31:51 10° WSW 01:32:54 11° SW 01:33:47 10° SW visible
27 Apr -1.4 00:35:57 10° WNW 00:38:44 26° SW 00:41:28 10° S visible
